Tracking 20041 objects as of 22-Nov-2019
Live streaming from Space Station
objects crossing your sky now

TEMPSAT 2

Track TEMPSAT 2 now!
10-day predictions
TEMPSAT 2 is classified as:


NORAD ID: 4168
Int'l Code: 1969-082H
Perigee: 902.1 km
Apogee: 930.8 km
Inclination: 70.0 °
Period: 103.2 minutes
Semi major axis: 7287 km
RCS: 0.0673 m2 (small)
Launch date: September 30, 1969
Source: United States (US)
Launch site: AIR FORCE WESTERN TEST RANGE (AFWTR)
aabbcc
Your satellite tracking list
Your tracking list is empty




NASA's NSSDC Master Catalog

Two Line Element Set (TLE):
1  4168U 69082H   19326.59492921 -.00000007  00000-0  33846-4 0  9992
2  4168  70.0130 179.6487 0019656   3.7869 356.3381 13.95537709553476
Source of the keplerian elements: AFSPC